Location: Maiden
(35.5760°N, 81.2120°W)
Time: 03:02:21
(UTC-04:00)

SPOT 3 Rocket - Pass Details

Date: 02 August 2020
Orbit: 778 x 795 km, 98.8° (Epoch: 11 August)

Event Time Altitude Azimuth Distance (km) Brightness Sun altitude
Exits shadow 21:40:05 14° 158° (SSE) 2,071 5.2 -13.9°
Maximum altitude 21:44:33 73° 74° (ENE) 829 3.5 -14.6°
Drops below altitude 10° 21:49:45 10° 351° (N) 2,363 6.7 -15.5°
Sets 21:52:04 0° 350° (N) 3,293 7.5 -15.9°
